San Luis Obispo, CA

10:51 PM PDT on April 21, 2018 (GMT -0700)
San Luis Obispo County-McChesney

Weather History for KSBP - May, 2013

Change the Weather History Date:

Friday, May 10, 2013

  Actual Average Record
Temperature  
Mean Temperature 66 °F -  
Max Temperature 82 °F 70 °F 95 °F (1993)
Min Temperature 51 °F 46 °F 37 °F (2002)
Cooling Degree Days 1    
Growing Degree Days 16 (Base 50)    
Moisture  
Dew Point 52 °F    
Average Humidity 77    
Maximum Humidity 97    
Minimum Humidity 41    
Precipitation  
Precipitation 0.00 in - - ()
Sea Level Pressure  
Sea Level Pressure 30.11 in    
Wind  
Wind Speed 8 mph (NW)    
Max Wind Speed 23 mph    
Max Gust Speed 32 mph    
Visibility 9 miles    
Events      
Averages and records for this station are not official NWS values.
T = Trace of Precipitation, MM = Missing Value Source: NWS Daily Summary

Daily Weather History Graph

Daily Weather History Graph

Search for Another Location

Airport or City:

Astronomy

May. 10, 2013 Rise Set
Actual Time 6:02 AM PDT 7:56 PM PDT
Civil Twilight 5:34 AM PDT 8:24 PM PDT
Nautical Twilight 5:00 AM PDT 8:57 PM PDT
Astronomical Twilight 4:24 AM PDT 9:33 PM PDT
Moon 6:30 AM PDT (5/10) 8:49 PM PDT (5/10)
Length of Visible Light 14h 49m
Length of Day
13h 53m
New Moon, 1% of the Moon is Illuminated
May 10
New Moon
May 17
First Quarter
May 24
Full
May 31
Last Quarter
Jun 8
New

Hourly Weather History & Observations

Time (PDT) Temp. Heat Index Dew Point Humidity Pressure Visibility Wind Dir Wind Speed Gust Speed Precip Events Conditions
12:56 AM 54.0 °F - 51.1 °F 90% 30.15 in 10.0 mi North - - N/A   Mostly Cloudy
1:56 AM 54.0 °F - 51.1 °F 90% 30.13 in 10.0 mi NW 3.5 mph - N/A   Overcast
2:56 AM 53.1 °F - 50.0 °F 89% 30.13 in 10.0 mi Calm Calm - N/A   Overcast
3:56 AM 53.1 °F - 51.1 °F 93% 30.13 in 10.0 mi Variable 3.5 mph - N/A   Overcast
4:56 AM 52.0 °F - 51.1 °F 97% 30.11 in 9.0 mi Calm Calm - N/A   Overcast
5:56 AM 51.1 °F - 50.0 °F 96% 30.11 in 6.0 mi North 3.5 mph - N/A   Mostly Cloudy
6:56 AM 53.1 °F - 51.1 °F 93% 30.13 in 8.0 mi NNW 5.8 mph - N/A   Partly Cloudy
7:56 AM 57.9 °F - 52.0 °F 81% 30.13 in 10.0 mi NW 6.9 mph - N/A   Clear
8:56 AM 66.0 °F - 53.1 °F 63% 30.12 in 10.0 mi NW 10.4 mph - N/A   Clear
9:56 AM 66.0 °F - 53.1 °F 63% 30.12 in 10.0 mi NW 15.0 mph - N/A   Clear
10:56 AM 73.9 °F - 54.0 °F 50% 30.12 in 10.0 mi NW 6.9 mph - N/A   Clear
11:56 AM 81.0 °F 80.7 °F 55.0 °F 41% 30.09 in 10.0 mi WNW 9.2 mph - N/A   Clear
12:56 PM 72.0 °F - 54.0 °F 53% 30.09 in 10.0 mi NW 23.0 mph 29.9 mph N/A   Clear
1:56 PM 70.0 °F - 53.1 °F 55% 30.09 in 10.0 mi NW 23.0 mph 32.2 mph N/A   Clear
2:56 PM 72.0 °F - 52.0 °F 49% 30.09 in 10.0 mi NW 21.9 mph 27.6 mph N/A   Clear
3:56 PM 66.0 °F - 53.1 °F 63% 30.07 in 10.0 mi NW 21.9 mph 28.8 mph N/A   Clear
4:56 PM 63.0 °F - 52.0 °F 67% 30.07 in 10.0 mi NW 18.4 mph 27.6 mph N/A   Clear
5:56 PM 60.1 °F - 52.0 °F 75% 30.06 in 10.0 mi NW 16.1 mph - N/A   Clear
6:56 PM 57.9 °F - 52.0 °F 81% 30.07 in 10.0 mi NW 13.8 mph - N/A   Clear
7:56 PM 54.0 °F - 52.0 °F 93% 30.10 in 8.0 mi NW 12.7 mph - N/A   Scattered Clouds
8:56 PM 54.0 °F - 52.0 °F 93% 30.10 in 8.0 mi NNW 6.9 mph - N/A   Partly Cloudy
9:56 PM 53.1 °F - 52.0 °F 96% 30.12 in 9.0 mi NW 5.8 mph - N/A   Clear
10:56 PM 53.1 °F - 52.0 °F 96% 30.12 in 7.0 mi Calm Calm - N/A   Clear
11:56 PM 54.0 °F - 51.1 °F 90% 30.12 in 9.0 mi West 3.5 mph - N/A   Clear